This demonstration page uses our WeatherBlox Daily Observations layout. Learn more.

Left ArrowRight Arrow

40.92945, -100.16068

Hourly Observations for September 15, 2017

Temp ( °F °C ) Dew Point ( °F °C ) Humidity (%) Winds ( mph kmh ) Pressure ( in mb ) Visibility ( mi km ) Precip ( " mm )
12:15 am 00:15 Clear 77 25.1 56 13.3 48 48 SSE 8 13 29.56 1001 10 16 0.00 0.00
12:35 am 00:35 Clear 74 23.2 58 14.5 58 58 W 10 17 29.62 1003 10 16 0.00 0.00
12:55 am 00:55 Partly Cloudy with Nearby Thunderstorms 74 23.6 58 14.7 58 58 WSW 7 11 29.65 1004 10 16 0.00 0.00
1:15 am 01:15 Partly Cloudy with Light Rain 73 22.8 60 15.6 64 64 NW 6 9 29.62 1003 10 16 0.00 0.00
1:35 am 01:35 Partly Cloudy 72 22.3 61 16.1 68 68 Calm 29.62 1003 10 16 0.00 0.00
1:55 am 01:55 Partly Cloudy 71 21.6 62 16.5 73 73 Calm 29.62 1003 10 16 0.00 0.00
2:15 am 02:15 Partly Cloudy 70 21 62 16.7 77 77 Calm 29.62 1003 10 16 0.00 0.00
2:35 am 02:35 Clear 70 21 62 16.4 75 75 ESE 3 6 29.65 1004 10 16 0.00 0.00
2:55 am 02:55 Clear 70 21.3 61 16.2 73 73 SSE 3 6 29.62 1003 10 16 0.00 0.00
3:15 am 03:15 Clear with Light Rain 71 21.4 62 16.5 74 74 SE 8 13 29.62 1003 10 16 0.00 0.00
3:35 am 03:35 Clear with Nearby Thunderstorms 71 21.8 62 16.4 72 72 E 6 9 29.62 1003 10 16 0.00 0.00
3:55 am 03:55 Clear 70 21.2 61 16.1 73 73 ESE 12 19 29.59 1002 10 16 0.00 0.00
4:15 am 04:15 Clear 71 21.6 60 15.6 69 69 ESE 9 15 29.59 1002 10 16 0.00 0.00
4:35 am 04:35 Clear 71 21.5 60 15.3 68 68 E 9 15 29.59 1002 10 16 0.00 0.00
4:55 am 04:55 Clear 67 19.5 60 15.3 77 77 ENE 9 15 29.62 1003 10 16 0.00 0.00
5:15 am 05:15 Clear 65 18.5 59 15.2 81 81 E 8 13 29.62 1003 10 16 0.00 0.00
5:35 am 05:35 Clear 66 19 59 15 78 78 E 8 13 29.62 1003 10 16 0.00 0.00
5:55 am 05:55 Clear 67 19.3 59 14.9 76 76 E 8 13 29.62 1003 10 16 0.00 0.00
6:15 am 06:15 Clear 67 19.6 59 14.8 74 74 E 9 15 29.62 1003 10 16 0.00 0.00
6:35 am 06:35 Clear 68 20 58 14.7 72 72 ESE 12 19 29.62 1003 10 16 0.00 0.00
6:55 am 06:55 Clear 68 19.8 59 14.8 73 73 ESE 10 17 29.62 1003 10 16 0.00 0.00
7:15 am 07:15 Clear 66 19 58 14.7 76 76 E 10 17 29.62 1003 10 16 0.00 0.00
7:35 am 07:35 Sunny 65 18.3 58 14.7 80 80 E 8 13 29.62 1003 10 16 0.00 0.00
7:55 am 07:55 Sunny 66 18.7 59 15 79 79 ESE 9 15 29.62 1003 10 16 0.00 0.00
8:15 am 08:15 Sunny 67 19.2 59 15.2 78 78 SE 10 17 29.62 1003 10 16 0.00 0.00
8:35 am 08:35 Sunny 68 20.1 60 15.5 75 75 SE 10 17 29.62 1003 10 16 0.00 0.00
8:55 am 08:55 Sunny 69 20.7 60 15.7 73 73 SE 9 15 29.59 1002 10 16 0.00 0.00
9:15 am 09:15 Sunny 71 21.4 61 16 71 71 SSE 10 17 29.59 1002 10 16 0.00 0.00
9:35 am 09:35 Sunny 74 23.1 62 16.5 67 67 SSE 13 20 29.59 1002 10 16 0.00 0.00
9:55 am 09:55 Sunny 77 24.9 60 15.3 55 55 S 15 24 29.56 1001 10 16 0.00 0.00
10:15 am 10:15 Sunny 78 25.7 57 14 48 48 S 13 20 29.56 1001 10 16 0.00 0.00
10:35 am 10:35 Sunny 79 26 57 13.7 47 47 S 9 15 29.56 1001 10 16 0.00 0.00
10:55 am 10:55 Sunny 81 27.2 55 13 42 42 S 14 22 29.56 1001 10 16 0.00 0.00
11:15 am 11:15 Sunny 81 27.2 55 12.9 41 41 S 13 20 29.56 1001 10 16 0.00 0.00
11:35 am 11:35 Sunny 82 27.7 54 12.2 38 38 SSW 16 26 29.53 1000 10 16 0.00 0.00
11:55 am 11:55 Sunny 82 27.9 53 11.8 37 37 SSW 17 28 29.53 1000 10 16 0.00 0.00
12:15 pm 12:15 Sunny 82 28 52 11.3 35 35 S 13 20 29.53 1000 10 16 0.00 0.00
12:35 pm 12:35 Sunny 82 27.9 54 12.1 38 38 SW 10 17 29.53 1000 10 16 0.00 0.00
12:55 pm 12:55 Sunny 87 30.6 53 11.4 31 31 SSW 13 20 29.53 1000 10 16 0.00 0.00
1:15 pm 13:15 Sunny 90 32 55 12.6 31 31 S 25 41 29.50 999 10 16 0.00 0.00
1:35 pm 13:35 Sunny 90 32 53 11.6 29 29 S 21 33 29.50 999 10 16 0.00 0.00
1:55 pm 13:55 Sunny 90 32 51 10.3 26 26 S 23 37 29.50 999 10 16 0.00 0.00
2:15 pm 14:15 Sunny 90 32.1 52 10.9 27 27 S 17 28 29.50 999 10 16 0.00 0.00
2:35 pm 14:35 Sunny 91 32.5 53 11.6 28 28 S 24 39 29.50 999 10 16 0.00 0.00
2:55 pm 14:55 Sunny 92 33.1 50 9.9 24 24 SSW 15 24 29.50 999 10 16 0.00 0.00
3:15 pm 15:15 Sunny 93 33.8 50 10.2 23 23 S 16 26 29.50 999 10 16 0.00 0.00
3:35 pm 15:35 Partly Cloudy 92 33.4 47 8.6 22 22 SSW 20 31 29.50 999 10 16 0.00 0.00
3:55 pm 15:55 Partly Cloudy 92 33.5 45 7 19 19 SW 17 28 29.50 999 10 16 0.00 0.00
4:15 pm 16:15 Partly Cloudy 93 33.7 47 8.3 21 21 SSW 10 17 29.50 999 10 16 0.00 0.00
4:35 pm 16:35 Mostly Cloudy 91 33 49 9.6 24 24 SSW 16 26 29.50 999 10 16 0.00 0.00
4:55 pm 16:55 Cloudy 92 33.2 55 12.5 28 28 S 14 22 29.50 999 10 16 0.00 0.00
5:15 pm 17:15 Mostly Cloudy 92 33.5 48 8.8 22 22 W 9 15 29.50 999 10 16 0.00 0.00
5:35 pm 17:35 Partly Cloudy 92 33.1 51 10.6 25 25 W 13 20 29.50 999 10 16 0.00 0.00
5:55 pm 17:55 Partly Cloudy 91 32.5 53 11.5 28 28 W 10 17 29.50 999 10 16 0.00 0.00
6:15 pm 18:15 Mostly Cloudy 90 32.3 53 11.7 28 28 Calm 29.50 999 10 16 0.00 0.00
6:35 pm 18:35 Partly Cloudy 89 31.5 54 12 30 30 N 5 7 29.50 999 10 16 0.00 0.00
6:55 pm 18:55 Sunny 87 30.5 58 14.3 37 37 N 5 7 29.53 1000 10 16 0.00 0.00
7:15 pm 19:15 Sunny with Nearby Thunderstorms 84 28.8 60 15.7 45 45 ESE 9 15 29.53 1000 10 16 0.00 0.00
7:35 pm 19:35 Sunny with Nearby Thunderstorms 78 25.5 60 15.4 54 54 ENE 7 11 29.56 1001 10 16 0.00 0.00
7:55 pm 19:55 Clear with Nearby Thunderstorms 73 23 61 16 65 65 N 7 11 29.59 1002 10 16 0.00 0.00
8:15 pm 20:15 Partly Cloudy 72 22 61 16 69 69 NE 6 9 29.62 1003 10 16 0.00 0.00
8:35 pm 20:35 Cloudy with Nearby Thunderstorms 73 22.6 61 15.9 66 66 E 14 22 29.65 1004 10 16 0.00 0.00
8:55 pm 20:55 Mostly Cloudy with Nearby Thunderstorms 72 22.1 61 16.1 69 69 ESE 13 20 29.65 1004 10 16 0.00 0.00
9:15 pm 21:15 Partly Cloudy with Nearby Thunderstorms 71 21.6 59 15.2 67 67 E 10 17 29.65 1004 10 16 0.00 0.00
9:35 pm 21:35 Partly Cloudy 71 21.6 60 15.6 69 69 E 13 20 29.65 1004 10 16 0.00 0.00
9:55 pm 21:55 Partly Cloudy with Nearby Thunderstorms 72 22.2 60 15.7 67 67 E 3 6 29.65 1004 10 16 0.00 0.00
10:15 pm 22:15 Clear 71 21.6 60 15.6 69 69 ENE 5 7 29.65 1004 10 16 0.00 0.00
10:35 pm 22:35 Clear with Nearby Thunderstorms 71 21.5 59 15.2 67 67 ENE 5 7 29.65 1004 10 16 0.00 0.00
10:55 pm 22:55 Clear 70 21.3 59 15 67 67 ESE 6 9 29.65 1004 10 16 0.00 0.00
11:15 pm 23:15 Clear 69 20.4 59 15 71 71 NNW 3 6 29.71 1006 10 16 0.00 0.00
11:35 pm 23:35 Clear 68 20.1 59 14.8 72 72 NE 10 17 29.71 1006 10 16 0.00 0.00
11:55 pm 23:55 Clear 71 21.5 58 14.5 65 65 ENE 12 19 29.68 1005 10 16 0.00 0.00

Powered by AerisWeather